DW5978 Whyalla SA AU current weather conditions

sailwx.info

Wind from 328 at 5 knots gusting 8

Air temperature 19.4° C
Dewpoint -2.8° C

Last reported at 2016-May-24 07:43 UTC.
Time now 2016-May-24 08:06 UTC

Location: S 33°01' E 137°32'.
View on Google Maps.

See reports from other nearby stations

  
Tides and Currents Weather Stations Pressure Air Temp Water Temp Dewpoint Dewpoint Depression Visibility Wind Speed Wind Dir Waves Ship Positions
date/time (UTC)wind fromknots sea level pressurealtimeterstation pressurevisibilityair tempwater tempwave heightnotes
2016-May-24 07:43 328 5 gusting 8 19.4
2016-May-24 07:28 349 6 gusting 11 20.6
2016-May-24 07:13 354 8 gusting 12 21.1
2016-May-24 06:58 349 6 gusting 14 21.7
2016-May-24 06:43 350 9 gusting 16 21.7
2016-May-24 06:28 351 12 gusting 18 21.7
2016-May-24 06:13 009 8 gusting 18 21.7
2016-May-24 05:58 330 11 gusting 15 22.2
2016-May-24 05:42 325 10 gusting 16 22.2
2016-May-24 05:27 330 11 gusting 19 21.7
2016-May-24 05:12 319 7 gusting 19 21.7
2016-May-24 04:57 354 9 gusting 17 21.7
2016-May-24 04:42 321 7 gusting 20 21.7
2016-May-24 04:27 307 9 gusting 17 21.7
2016-May-24 04:12 343 8 gusting 18 21.7
2016-May-24 03:57 005 6 gusting 16 21.7
2016-May-24 03:42 358 11 gusting 18 21.1
2016-May-24 03:27 335 6 gusting 13 21.1
2016-May-24 03:14 333 6 gusting 15 21.1
2016-May-24 02:57 341 10 gusting 15 20.6
2016-May-24 02:42 338 9 gusting 17 20.6
2016-May-24 02:27 005 6 gusting 13 20.0
2016-May-24 02:12 356 6 gusting 11 20.0
2016-May-24 01:57 351 6 gusting 11 20.0
2016-May-24 01:42 022 6 gusting 13 19.4
2016-May-24 01:27 008 6 gusting 12 18.9
2016-May-24 01:14 342 3 gusting 7 18.3
2016-May-24 00:57 004 4 gusting 13 17.8
2016-May-24 00:41 358 2 gusting 8 17.2
2016-May-24 00:26 354 1 gusting 5 16.7
2016-May-24 00:11 330 2 gusting 5 15.6
2016-May-23 23:56 347 2 gusting 5 13.9
2016-May-23 23:41 308 1 gusting 6 11.7
2016-May-23 23:26 302 2 gusting 4 10.0
2016-May-23 23:11 285 0 gusting 2 9.4
2016-May-23 22:56 307 0 gusting 4 8.9
2016-May-23 22:41 305 1 gusting 4 7.8
2016-May-23 22:26 309 0 gusting 2 6.7
2016-May-23 22:11 300 1 gusting 3 6.1
2016-May-23 21:57 290 2 gusting 5 7.8
2016-May-23 21:41 303 2 gusting 4 7.8
2016-May-23 21:26 302 3 gusting 4 8.3
2016-May-23 21:11 302 3 gusting 6 8.9
2016-May-23 20:56 307 3 gusting 5 8.9
2016-May-23 20:41 311 1 gusting 3 8.9
2016-May-23 20:26 288 0 gusting 2 8.9
2016-May-23 20:11 278 2 gusting 6 9.4
2016-May-23 19:56 309 8.3
2016-May-23 19:41 307 8.3
2016-May-23 19:26 308 0 gusting 1 8.3
2016-May-23 19:11 308 0 gusting 1 7.8
2016-May-23 18:56 307 0 gusting 1 7.2
2016-May-23 18:41 302 0 gusting 1 6.7
2016-May-23 18:26 302 5.6
2016-May-23 18:11 302 0 gusting 1 6.7
2016-May-23 17:56 302 7.2
2016-May-23 17:41 302 0 gusting 1 7.8
2016-May-23 17:26 302 0 gusting 1 8.3
2016-May-23 17:11 304 0 gusting 2 8.3
2016-May-23 16:56 302 1 gusting 1 8.3
2016-May-23 16:41 305 7.8
2016-May-23 16:26 302 0 gusting 1 7.2
2016-May-23 16:11 302 1 gusting 1 6.7
2016-May-23 15:55 078 6.1
2016-May-23 15:40 079 7.2
2016-May-23 15:25 079 6.7
2016-May-23 15:10 079 7.8
2016-May-23 14:55 079 0 gusting 1 7.8
2016-May-23 14:40 079 8.3
2016-May-23 14:25 079 7.8
2016-May-23 14:10 079 8.3
2016-May-23 13:55 079 7.8
2016-May-23 13:40 079 7.8
2016-May-23 13:25 079 8.9
2016-May-23 13:10 079 9.4
2016-May-23 12:55 079 8.3
2016-May-23 12:40 082 8.9
2016-May-23 12:25 082 8.9
2016-May-23 12:10 082 9.4
2016-May-23 11:55 082 10.0
2016-May-23 11:40 082 10.6
2016-May-23 11:25 082 0 gusting 0 10.0
2016-May-23 11:10 082 10.0
2016-May-23 10:55 082 0 gusting 0 10.0
2016-May-23 10:40 082 10.6
2016-May-23 10:25 082 11.1
2016-May-23 10:10 082 11.1
2016-May-23 09:55 082 11.7
2016-May-23 09:40 082 12.2
2016-May-23 09:25 082 13.3
2016-May-23 09:10 082 13.3
2016-May-23 08:55 082 14.4
2016-May-23 08:40 082 0 gusting 2 15.0
2016-May-23 08:25 075 0 gusting 2 15.0
2016-May-23 08:10 072 0 gusting 2 15.6
2016-May-23 07:55 076 0 gusting 4 16.1
2016-May-23 07:40 096 2 gusting 5 17.2
2016-May-23 07:25 087 3 gusting 5 17.2
2016-May-23 07:10 115 5 gusting 8 17.8
2016-May-23 06:55 106 4 gusting 8 17.8
2016-May-23 06:40 120 4 gusting 7 18.3
2016-May-23 06:25 124 6 gusting 9 18.3
2016-May-23 06:10 098 4 gusting 7 18.3
2016-May-23 05:55 122 3 gusting 7 18.9
2016-May-23 05:40 097 3 gusting 8 18.3
2016-May-23 05:25 072 4 gusting 7 18.9
2016-May-23 05:10 100 2 gusting 8 18.9
2016-May-23 04:55 086 3 gusting 7 18.9
2016-May-23 04:40 131 3 gusting 6 18.9
2016-May-23 04:25 085 3 gusting 8 18.9
2016-May-23 04:10 156 0 gusting 5 18.9
2016-May-23 03:55 098 0 gusting 6 18.9
2016-May-23 03:40 105 0 gusting 5 18.9
2016-May-23 03:25 114 0 gusting 4 18.3
2016-May-23 03:10 112 1 gusting 4 18.3
2016-May-23 02:55 051 2 gusting 6 18.3
2016-May-23 02:40 077 3 gusting 7 17.8
2016-May-23 02:25 069 1 gusting 4 18.3
2016-May-23 02:10 148 1 gusting 6 18.3
2016-May-23 01:55 115 2 gusting 7 18.3
2016-May-23 01:40 105 2 gusting 4 18.3
2016-May-23 01:24 204 4 gusting 7 17.8
2016-May-23 01:09 276 0 gusting 6 17.2
2016-May-23 00:54 290 1 gusting 4 17.2
2016-May-23 00:39 232 3 gusting 6 16.1
2016-May-23 00:24 236 3 gusting 6 16.1
2016-May-23 00:09 231 2 gusting 5 15.0
2016-May-22 23:54 243 4 gusting 6 14.4
2016-May-22 23:39 254 2 gusting 5 13.9
2016-May-22 23:24 267 3 gusting 6 12.8
2016-May-22 23:09 263 2 gusting 4 12.2
2016-May-22 22:54 304 0 gusting 3 10.6
2016-May-22 22:39 302 10.0
2016-May-22 22:24 300 0 gusting 1 8.3
2016-May-22 22:09 297 0 gusting 2 8.3
2016-May-22 21:54 300 7.8
2016-May-22 21:39 297 1 gusting 3 7.8
2016-May-22 21:24 315 0 gusting 2 8.3
2016-May-22 21:09 322 2 gusting 5 8.3
2016-May-22 20:54 327 1 gusting 3 7.8
2016-May-22 20:39 300 1 gusting 1 7.8
2016-May-22 20:24 297 1 gusting 2 8.3
2016-May-22 20:09 302 1 gusting 3 8.3
2016-May-22 19:54 311 1 gusting 2 8.9
2016-May-22 19:39 314 0 gusting 2 8.9
2016-May-22 19:24 311 0 gusting 2 8.9
2016-May-22 19:09 307 1 gusting 2 8.9
2016-May-22 18:54 311 2 gusting 4 8.9
2016-May-22 18:38 307 2 gusting 4 9.4
2016-May-22 18:23 297 2 gusting 6 10.0
2016-May-22 18:08 290 3 gusting 6 10.0
2016-May-22 17:53 300 3 gusting 7 10.6
2016-May-22 17:38 270 4 gusting 9 10.6
2016-May-22 17:23 285 5 gusting 10 10.6
2016-May-22 17:08 307 4 gusting 6 10.0
2016-May-22 16:53 284 4 gusting 7 10.0
2016-May-22 16:38 288 3 gusting 6 10.0
2016-May-22 16:23 291 3 gusting 6 10.0
2016-May-22 16:08 304 5 gusting 7 10.0
2016-May-22 15:53 314 3 gusting 5 10.0
2016-May-22 15:38 305 2 gusting 3 10.0
2016-May-22 15:23 304 2 gusting 4 10.6
2016-May-22 15:08 307 3 gusting 5 10.0
2016-May-22 14:53 302 2 gusting 4 10.6
2016-May-22 14:38 308 2 gusting 4 11.1
2016-May-22 14:23 307 2 gusting 6 11.7
2016-May-22 14:08 285 3 gusting 6 12.2
2016-May-22 13:53 302 4 gusting 6 12.2
2016-May-22 13:38 307 4 gusting 8 12.8
2016-May-22 13:23 285 5 gusting 10 13.3
2016-May-22 13:08 291 6 gusting 11 13.3
2016-May-22 12:52 285 6 gusting 8 13.3
2016-May-22 12:37 304 5 gusting 10 13.3
2016-May-22 12:22 305 4 gusting 7 13.3
2016-May-22 12:07 300 3 gusting 7 13.9
2016-May-22 11:52 297 2 gusting 7 13.9
2016-May-22 11:37 300 2 gusting 9 14.4
2016-May-22 11:22 294 3 gusting 6 14.4
2016-May-22 11:07 288 4 gusting 7 15.0
2016-May-22 10:52 274 3 gusting 7 15.0
2016-May-22 10:37 288 4 gusting 7 15.6
2016-May-22 10:22 249 4 gusting 11 16.1
2016-May-22 10:07 270 8 gusting 15 16.7
2016-May-22 09:52 246 10 gusting 16 16.7
2016-May-22 09:37 262 10 gusting 13 17.2
2016-May-22 09:22 271 10 gusting 18 17.2
2016-May-22 09:07 246 10 gusting 16 17.8
2016-May-22 08:52 257 9 gusting 18 18.3
2016-May-22 08:37 246 11 gusting 18 18.9
2016-May-22 08:22 283 13 gusting 19 19.4
2016-May-22 08:07 272 12 gusting 17 19.4